Location: *
(46.0770°N, 1.6444°E)
Time: 05:41:11
(UTC+00:00)

Cosmos 2360 Rocket - Pass Details

Date: 16 September 2019
Orbit: 833 x 846 km, 71.0° (Epoch: 19 October)

Event Time Altitude Azimuth Distance (km) Brightness Sun altitude
Rises 19:17:32 0° 326° (NW) 3,402 6.3 -13.4°
Reaches altitude 10° 19:20:11 10° 317° (NW) 2,465 5.6 -13.8°
Maximum altitude 19:25:10 33° 255° (WSW) 1,386 3.9 -14.6°
Drops below altitude 10° 19:30:08 10° 193° (SSW) 2,457 4.5 -15.4°
Sets 19:32:47 0° 184° (S) 3,388 5.2 -15.9°
